www.pogodaiklimat.ru

Погода и климат >> Архив погоды >> Китай >> Beijing


АРХИВ ПОГОДЫ в Beijing

Время (UTC), дата Ветер
(напр.,м/с)
 
Видим.   Явления Облачность Т
(С)
Тd
(С)
f
(%)
Тe
(С)
Тes
(С)
Комфортность P
(гПа)
Po
(гПа)
Тmin
(С)
Tmax
(С)
R
(мм)
R24
(мм)
S
(см)
15 13.08 штиль 0 6000 м мгла н/о +27.5 +23.7 80 +38 +38 очень
душно
1006.5 1007.0
18 13.08 С 1 6000 м мгла н/о +26.4 +22.9 81 +35 +35 очень
душно
1005.8 1002.1 +30.8
21 13.08 В 1 3300 м мгла н/о +26.0 +23.7 87 +35 +35 очень
душно
1005.8 1006.0
00 14.08 С 3 3400 м мгла 10/10 1000 м
[]
+26.0 +23.9 88 +36 +36 очень
душно
1006.2 1002.5
03 14.08 СВ 2 10 км 9/9 1000 м
[]
+28.2 +23.8 77 +39 +40 очень
душно
1006.0 1006.0
06 14.08 В 4 30 км {ливн. осадки} 9/9 1000 м
[]
+28.8 +23.2 72 +39 +40 очень
душно
1005.0 1001.3 +25.8 0.0
09 14.08 В 4 29 км 9/9 1000 м
[]
+27.3 +22.9 77 +36 +37 очень
душно
1005.1 1005.0
12 14.08 С 2 28 км 9/9 1000 м
[]
+25.9 +22.2 80 +34 +34 очень
душно
1005.7 1002.0
15 14.08 СВ 1 13 км н/о +25.7 +23.0 85 +34 +34 очень
душно
1006.9 1007.0
18 14.08 штиль 0 4800 м дымка н/о +24.7 +22.9 90 +33 +33 очень
душно
1006.8 1003.1 +28.9
21 14.08 С 2 20 км н/о +26.0 +21.7 77 +33 +33 очень
душно
1007.3 1007.0
00 15.08 С 3 20 км ясно +29.1 +20.5 60 +36 +40 очень
душно
1008.4 1004.7
03 15.08 СВ 4 28 км 9/9 1500 м
[]
+30.8 +18.9 49 +36 +37 очень
душно
1009.3 1009.0
06 15.08 СВ 4 30 км 9/9 1500 м
[]
+32.2 +18.4 44 +37 +38 очень
душно
1009.3 1005.6 +24.3
09 15.08 В 2 21 км 9/9 1500 м
[]
+30.5 +21.0 57 +38 +38 очень
душно
1009.9 1010.0
12 15.08 В 2 30 км 9/9 1500 м
[]
+28.6 +20.9 63 +36 +36 очень
душно
1011.2 1007.5
15 15.08 С 1 30 км н/о +27.4 +20.2 65 +34 +34 очень
душно
1012.3 1012.0
18 15.08 С 3 30 км н/о +27.4 +17.9 56 +32 +32 очень
душно
1012.8 1009.1 +32.3
21 15.08 СВ 3 30 км н/о +26.5 +17.3 57 +31 +31 душно 1013.3 1013.0
00 16.08 СВ 3 30 км 9/9 1500 м
[]
+26.7 +16.6 54 +30 +31 душно 1014.5 1010.8
03 16.08 СВ 2 30 км 9/9 1500 м
[]
+29.1 +16.6 47 +33 +34 очень
душно
1014.9 1015.0
06 16.08 ЮЗ 2 30 км 8/8
[]
+31.8 +16.9 41 +35 +38 очень
душно
1013.3 1009.6 +25.5
09 16.08 Ю 2 30 км 8/8
[]
+31.6 +16.4 40 +35 +35 очень
душно
1012.2 1012.0
12 16.08 Ю 1 30 км 8/8
[]
+28.8 +18.0 52 +33 +33 очень
душно
1013.2 1009.5
15 16.08 Ю 1 17 км н/о +26.5 +19.9 67 +32 +32 очень
душно
1013.3 1013.0
18 16.08 штиль 0 12 км н/о +24.3 +20.6 80 +30 +30 очень
душно
1012.8 1009.1 +32.6
21 16.08 Ю 2 10 км н/о +23.6 +19.9 80 +29 +29 душно 1012.6 1013.0
00 17.08 З 2 13 км 9/9
[]
+25.9 +19.5 68 +31 +32 очень
душно
1013.3 1009.6
03 17.08 ЮЗ 3 17 км 9/9 1500 м
[]
+28.8 +19.7 58 +35 +36 очень
душно
1012.7 1013.0
06 17.08 З 1 15 км 9/9 1500 м
[]
+30.5 +20.4 55 +37 +39 очень
душно
1010.6 1006.9 +23.0
09 17.08 Ю 2 19 км 9/9
[]
+31.6 +20.2 51 +38 +38 очень
душно
1008.9 1009.0
12 17.08 ЮЗ 2 14 км 5/5
[]
+28.6 +21.1 64 +36 +36 очень
душно
1009.7 1006.0
15 17.08 Ю 1 15 км н/о +27.4 +20.2 65 +34 +34 очень
душно
1010.3 1010.0
18 17.08 ЮВ 1 9000 м н/о +25.0 +19.1 70 +30 +30 душно 1010.0 1006.3 +31.9
21 17.08 С 5 9000 м н/о +24.3 +20.0 77 +30 +30 очень
душно
1011.0 1011.0
00 18.08 С 4 30 км 10/10 1000 м
[]
+23.4 +18.3 73 +29 +29 душно 1011.9 1008.2
03 18.08 С 3 30 км {ливн. осадки} 9/9 1000 м
[]
+24.4 +18.3 69 +29 +30 душно 1011.2 1011.0
06 18.08 С 4 30 км {ливн. осадки} 9/9 1500 м
[]
+26.2 +17.8 60 +31 +32 очень
душно
1010.1 1006.4 +22.7 0.0
09 18.08 С 2 30 км 9/9
[]
+27.6 +18.6 58 +33 +33 очень
душно
1008.5 1009.0
12 18.08 В 2 22 км 9/9
[]
+25.9 +18.8 65 +31 +31 очень
душно
1008.9 1005.2
15 18.08 СВ 1 14 км н/о +24.8 +19.0 70 +30 +30 душно 1009.5 1010.0
18 18.08 СВ 2 22 км н/о +24.2 +19.5 75 +29 +29 душно 1009.2 1005.5 +27.8
21 18.08 В 2 21 км н/о +23.4 +20.2 82 +31 +31 очень
душно
1009.0 1009.0
00 19.08 СВ 2 15 км 9/9
[]
+24.7 +20.6 78 +31 +31 очень
душно
1009.5 1005.8
03 19.08 В 3 11 км 9/9 1000 м
[]
+27.2 +20.5 67 +34 +35 очень
душно
1009.0 1009.0
06 19.08 В 3 12 км 10/10 1500 м
[]
+27.6 +21.2 68 +35 +35 очень
душно
1007.7 1004.0 +23.3
09 19.08 В 3 21 км в посл. час ливневой дождь 10/10 1500 м
[]
+25.3 +20.3 74 +31 +31 очень
душно
1006.9 1007.0
12 19.08 В 3 23 км в посл. час ливневой дождь 10/10 1000 м
[]
+24.0 +20.9 83 +30 +30 очень
душно
1007.2 1003.5 0.0
15 19.08 В 2 4400 м н/о +23.4 +20.9 86 +31 +31 очень
душно
1007.3 1007.0
18 19.08 СВ 3 5000 м мгла н/о +23.1 +20.2 84 +30 +30 очень
душно
1005.8 1002.1 +28.0
21 19.08 С 1 4000 м дымка н/о +22.2 +20.5 90 +29 +29 очень
душно
1004.1 1004.0
00 20.08 СВ 2 7000 м мгла 6/6
[]
+25.2 +20.2 74 +31 +33 очень
душно
1003.9 1000.2 0.1
03 20.08 С 2 18 км 9/9
[]
+29.6 +19.9 56 +36 +37 очень
душно
1002.2 1002.0
06 20.08 ЮЗ 3 18 км 9/9
[]
+31.3 +21.2 55 +39 +40 очень
душно
1000.1 996.4 +21.7
09 20.08 Ю 5 17 км 9/9
[]
+31.1 +22.4 60 +40 +41 очень
душно
999.3 999.0

 

Местоположение метеостанции Beijing (Китай): широта 39.93 долгота 116.28 высота над уровнем моря 55 м.

В архиве по умолчанию представлена погода в Beijing за последнюю неделю. Архивные данные за месяц целиком и за предыдущие месяцы, начиная с января 2011 года, Вы можете получить, выбрав интересующий диапазон дат из раскрывающегося списка и нажав кнопку "Ввод!".


*Определитесь, кто Вы:
робот инопланетянин человек

Внимание! Время в таблицах - всемирное. Для получения местного времени необходимо прибавить поправку, которая в Beijing равна 8 ч.

Смотрите также архив погоды в соседних городах и на ближайших метеорологических станциях:

Погода в Huailai (Китай) (84 км)
Погода в Tianjin (Китай) (119 км)
Погода в Baoding (Китай) (135 км)
Погода в Fengning (Китай) (146 км)
Погода в Yu Xian (Китай) (147 км)
Погода в Zhangjiakou (Китай) (152 км)
Погода в Tangshan (Китай) (162 км)
Погода в Chengde (Китай) (183 км)
Погода в Potou (Китай) (207 км)
Погода в Leting (Китай) (231 км)

Пояснения к столбцам:

Ветер - указаны скорость ветра в м/с - средняя за 10 мин, порывы в срок и между сроками (в фигурных скобках) и направление, откуда дует ветер: С - северный, СВ - северо-восточный, В - восточный, ЮВ - юго-восточный, Ю - южный, ЮЗ - юго-западный, З - западный, СЗ - северо-западный.
Видимость - горизонтальная дальность видимости в метрах или километрах. При видимости от 1 до 10 км при отсутствии осадков обычно наблюдается дымка, при ухудшении видимости до 1 км и менее - туман. В сухую погоду видимость может ухудшаться дымом, пылью или мглою.
Явления - указаны атмосферные явления, наблюдавшиеся в срок или в последний час перед сроком; фигурными скобками обозначены явления, наблюдавшиеся между сроками (за 1-3 часа до срока); квадратными скобками обозначены град или гололедные отложения с указанием их диаметра в мм.
Облачность - указаны через наклонную черту общая и нижняя облачность в баллах и высота нижней границы облаков в метрах; квадратными скобками обозначены формы облаков: Ci - перистые, Cs - перисто-слоистые, Cc - перисто-кучевые, Ac - высококучевые, As - высокослоистые, Sc - слоисто-кучевые, Ns - слоисто-дождевые, Cu - кучевые, Cb - кучево-дождевые. Подробнее классификацию облаков см. в Атласе облаков (PDF).
T - Температура воздуха - температура, измеренная на высоте 2 м над землей.
Td - Температура точки росы - температура, при понижении до которой содержащийся в воздухе водяной пар достигнет насыщения.
f - Относительная влажность воздуха - влажноcть воздуха, измеренная на высоте 2 м над землей.
Te - Эффективная температура - температура, которую ощущает одетый по сезону человек в тени. Характеристика душности погоды. При расчете учитывается влияние влажности воздуха и скорости ветра на теплоощущения человека.
Tes - Эффективная температура на солнце - температура, которую ощущает человек, с поправкой на солнечный нагрев. Характеристика знойности погоды. Зависит от высоты солнца над горизонтом, облачности и скорости ветра. Ночью, в пасмурную погоду, а также при ветре 12 м/с и более поправка равна нулю.
P - Атмосферное давление - приведенное к уровню моря атмосферное давление.
Po - Атмосферное давление - измеренное на уровне метеостанции атмосферное давление.
Tmin - Минимальная температура - минимум температуры воздуха на высоте 2 м над землей.
Tmax - Максимальная температура - максимум температуры воздуха на высоте 2 м над землей.
R - Количество осадков - Количество выпавших осадков за период времени, мм. При наведении курсора мыши на число - период времени, за который выпало указанное количество осадков.
R24 - Количество осадков - Количество выпавших осадков за 24 часа, мм.
S - Снежный покров - Высота снежного покрова, см. При наведении курсора мыши на число - состояние снежного покрова и степень покрытия местности в баллах.